TimeCDT,TemperatureF,Dew PointF,Humidity,Sea Level PressureIn,VisibilityMPH,Wind Direction,Wind SpeedMPH,Gust SpeedMPH,PrecipitationIn,Events,Conditions,WindDirDegrees,DateUTC
12:56 AM,57.9,53.1,84,29.93,10.0,NW,9.2,-,N/A,,Overcast,320,2013-04-05 05:56:00
1:56 AM,55.9,52.0,87,29.93,10.0,NW,9.2,18.4,N/A,,Overcast,310,2013-04-05 06:56:00
2:56 AM,55.9,51.1,84,29.93,10.0,NW,10.4,16.1,N/A,,Overcast,320,2013-04-05 07:56:00
3:56 AM,54.0,50.0,86,29.94,10.0,NNW,12.7,18.4,0.00,Rain,Light Rain,340,2013-04-05 08:56:00
4:56 AM,54.0,50.0,86,29.95,10.0,NNW,10.4,18.4,N/A,,Overcast,330,2013-04-05 09:56:00
5:56 AM,53.1,48.9,86,29.97,10.0,NNW,13.8,23.0,N/A,,Overcast,330,2013-04-05 10:56:00
6:56 AM,52.0,48.9,89,29.99,10.0,NNW,11.5,-,N/A,,Overcast,330,2013-04-05 11:56:00
7:56 AM,52.0,48.0,86,30.01,10.0,NNW,12.7,20.7,N/A,,Overcast,330,2013-04-05 12:56:00
8:56 AM,54.0,48.9,83,30.04,10.0,NNW,10.4,-,N/A,,Overcast,340,2013-04-05 13:56:00
9:34 AM,55.4,48.2,77,30.04,10.0,North,11.5,21.9,N/A,,Overcast,350,2013-04-05 14:34:00
9:56 AM,55.0,48.0,77,30.06,10.0,NNW,10.4,-,N/A,,Overcast,340,2013-04-05 14:56:00
10:56 AM,57.0,46.9,69,30.07,10.0,North,15.0,-,N/A,,Overcast,10,2013-04-05 15:56:00
11:56 AM,59.0,48.0,67,30.06,10.0,NNW,10.4,-,N/A,,Overcast,340,2013-04-05 16:56:00
12:56 PM,61.0,48.0,62,30.05,10.0,NNW,13.8,19.6,N/A,,Mostly Cloudy,340,2013-04-05 17:56:00
1:56 PM,60.1,46.9,62,30.05,10.0,NNE,16.1,21.9,N/A,,Overcast,20,2013-04-05 18:56:00
2:56 PM,61.0,46.9,60,30.04,10.0,NNW,11.5,18.4,N/A,,Mostly Cloudy,330,2013-04-05 19:56:00
3:06 PM,62.6,46.4,55,30.03,10.0,North,15.0,20.7,N/A,,Mostly Cloudy,360,2013-04-05 20:06:00
3:56 PM,64.0,46.9,54,30.02,10.0,North,12.7,18.4,N/A,,Scattered Clouds,350,2013-04-05 20:56:00
4:56 PM,64.9,46.0,50,30.01,10.0,North,9.2,17.3,N/A,,Partly Cloudy,360,2013-04-05 21:56:00
5:56 PM,64.9,46.0,50,30.02,10.0,North,10.4,-,N/A,,Partly Cloudy,350,2013-04-05 22:56:00
6:56 PM,63.0,46.0,54,30.04,10.0,North,6.9,-,N/A,,Clear,350,2013-04-05 23:56:00
7:56 PM,59.0,46.9,64,30.07,10.0,North,5.8,-,N/A,,Clear,350,2013-04-06 00:56:00
8:56 PM,57.0,46.0,67,30.09,10.0,NNW,4.6,-,N/A,,Clear,330,2013-04-06 01:56:00
9:56 PM,54.0,46.0,75,30.10,10.0,NNW,4.6,-,N/A,,Clear,330,2013-04-06 02:56:00
10:56 PM,50.0,46.0,86,30.10,10.0,NNW,3.5,-,N/A,,Clear,330,2013-04-06 03:56:00
11:56 PM,51.1,46.9,86,30.11,10.0,NW,4.6,-,N/A,,Clear,320,2013-04-06 04:56:00